CW3794 Weather Reports


Display with metric or nautical units.
time (UTC)temp
F
wind
direction
speed
MPH
gust
MPH
rain 1hr
in
rain 24hr
in
rain mn
in
humidity
%
barometer
mb
20260905222404 97 260 0.0 0.0 0.00 0.00 0.00 31 1008.4
20260905221903 97 265 0.0 0.0 0.00 0.00 0.00 32 1008.4
20260905221404 97 264 0.0 0.0 0.00 0.00 0.00 32 1008.6
20260905220903 97 267 0.0 0.0 0.00 0.00 0.00 32 1008.6
20260905220404 97 231 0.0 0.0 0.00 0.00 0.00 32 1008.7
20260905215904 97 253 0.0 0.0 0.00 0.00 0.00 33 1008.6
20260905215404 97 231 0.0 0.0 0.00 0.00 0.00 32 1008.6
20260905214904 97 231 0.0 0.0 0.00 0.00 0.00 32 1008.7
20260905214404 98 232 0.0 0.0 0.00 0.00 0.00 32 1008.7
20260905213904 99 326 0.0 3.0 0.00 0.00 0.00 32 1008.7
20260905213403 99 248 0.0 1.0 0.00 0.00 0.00 32 1008.7
20260905212904 99 269 0.0 0.0 0.00 0.00 0.00 31 1008.8
20260905211404 99 309 0.0 3.0 0.00 0.00 0.00 31 1009.0
20260905210903 99 301 0.0 3.0 0.00 0.00 0.00 32 1009.0
20260905205903 99 240 0.0 0.0 0.00 0.00 0.00 31 1009.1
20260905205404 99 240 0.0 1.0 0.00 0.00 0.00 32 1009.1
20260905204904 98 218 0.0 0.0 0.00 0.00 0.00 32 1009.2
20260905204403 98 217 0.0 5.0 0.00 0.00 0.00 32 1009.2
20260905203405 98 221 0.0 0.0 0.00 0.00 0.00 32 1009.4
20260905202905 98 221 0.0 0.0 0.00 0.00 0.00 32 1009.5
20260905202405 97 220 0.0 3.0 0.00 0.00 0.00 32 1009.7
20260905201905 97 259 0.0 0.0 0.00 0.00 0.00 32 1009.7
20260905201405 97 259 0.0 0.0 0.00 0.00 0.00 32 1009.8
20260905200405 97 229 0.0 0.0 0.00 0.00 0.00 33 1009.9
20260905195906 97 229 0.0 0.0 0.00 0.00 0.00 32 1009.8
20260905195405 96 229 0.0 0.0 0.00 0.00 0.00 33 1009.9
20260905194905 96 229 0.0 0.0 0.00 0.00 0.00 33 1010.0
20260905193905 97 229 0.0 0.0 0.00 0.00 0.00 32 1010.1
20260905193405 97 229 0.0 0.0 0.00 0.00 0.00 32 1010.1
20260905192906 97 229 0.0 0.0 0.00 0.00 0.00 32 1010.3
20260905192405 97 228 0.0 0.0 0.00 0.00 0.00 32 1010.3
20260905191905 97 228 0.0 0.0 0.00 0.00 0.00 32 1010.4
20260905191405 96 229 0.0 0.0 0.00 0.00 0.00 33 1010.5
20260905190905 96 229 0.0 0.0 0.00 0.00 0.00 33 1010.6
20260905190406 96 228 0.0 0.0 0.00 0.00 0.00 33 1010.7
20260905184405 96 229 0.0 0.0 0.00 0.00 0.00 32 1010.9
20260905182406 95 232 0.0 0.0 0.00 0.00 0.00 34 1011.1
20260905181905 94 232 0.0 0.0 0.00 0.00 0.00 34 1011.2
20260905180906 94 232 0.0 0.0 0.00 0.00 0.00 34 1011.2
20260905175905 94 232 0.0 0.0 0.00 0.00 0.00 35 1011.1
20260905175405 93 232 0.0 0.0 0.00 0.00 0.00 36 1011.2
20260905174905 92 232 0.0 0.0 0.00 0.00 0.00 36 1011.2
20260905174405 92 232 0.0 0.0 0.00 0.00 0.00 37 1011.1
20260905173405 92 232 0.0 0.0 0.00 0.00 0.00 36 1011.2
20260905172905 91 232 0.0 0.0 0.00 0.00 0.00 36 1011.4
20260905172405 91 232 0.0 0.0 0.00 0.00 0.00 37 1011.3
20260905171905 91 232 0.0 0.0 0.00 0.00 0.00 37 1011.3
20260905171405 91 232 0.0 0.0 0.00 0.00 0.00 37 1011.3
20260905170905 91 232 0.0 0.0 0.00 0.00 0.00 37 1011.3
20260905170405 91 232 0.0 0.0 0.00 0.00 0.00 37 1011.2
20260905165905 91 232 0.0 0.0 0.00 0.00 0.00 36 1011.1
20260905165405 90 232 0.0 0.0 0.00 0.00 0.00 36 1011.3
20260905163905 90 232 0.0 0.0 0.00 0.00 0.00 37 1011.3
20260905163405 90 232 0.0 0.0 0.00 0.00 0.00 37 1011.3
20260905162405 89 232 0.0 0.0 0.00 0.00 0.00 39 1011.1
20260905161905 90 232 0.0 0.0 0.00 0.00 0.00 38 1011.1
20260905161406 90 232 0.0 0.0 0.00 0.00 0.00 37 1011.1
20260905160905 89 232 0.0 0.0 0.00 0.00 0.00 38 1011.0
20260905160406 89 232 0.0 0.0 0.00 0.00 0.00 37 1011.0
20260905155905 89 231 0.0 0.0 0.00 0.00 0.00 38 1011.0
20260905155405 89 232 0.0 0.0 0.00 0.00 0.00 37 1011.2
20260905154406 89 232 0.0 0.0 0.00 0.00 0.00 38 1011.1
20260905153405 89 232 0.0 0.0 0.00 0.00 0.00 38 1010.9
20260905152405 89 232 0.0 0.0 0.00 0.00 0.00 37 1010.9
20260905151905 89 232 0.0 0.0 0.00 0.00 0.00 39 1010.7
20260905151405 89 232 0.0 0.0 0.00 0.00 0.00 38 1010.7
20260905150406 88 232 0.0 0.0 0.00 0.00 0.00 40 1010.7
20260905145406 87 232 0.0 0.0 0.00 0.00 0.00 43 1011.0
20260905144905 86 232 0.0 0.0 0.00 0.00 0.00 43 1010.9
20260905144405 86 232 0.0 0.0 0.00 0.00 0.00 45 1010.8
20260905143906 85 232 0.0 0.0 0.00 0.00 0.00 45 1010.8
20260905143405 85 232 0.0 0.0 0.00 0.00 0.00 45 1010.7
20260905142906 85 232 0.0 0.0 0.00 0.00 0.00 45 1010.7
20260905142405 84 232 0.0 0.0 0.00 0.00 0.00 46 1010.7
20260905141905 84 232 0.0 0.0 0.00 0.00 0.00 46 1010.7
20260905140905 83 232 0.0 0.0 0.00 0.00 0.00 46 1010.7
20260905140406 83 232 0.0 0.0 0.00 0.00 0.00 47 1010.6
20260905135905 83 232 0.0 0.0 0.00 0.00 0.00 47 1010.5
20260905135406 82 232 0.0 0.0 0.00 0.00 0.00 48 1010.5
20260905134405 81 232 0.0 0.0 0.00 0.00 0.00 49 1010.4
20260905133905 81 232 0.0 0.0 0.00 0.00 0.00 49 1010.3
20260905133405 80 232 0.0 0.0 0.00 0.00 0.00 49 1010.3
20260905132905 80 232 0.0 0.0 0.00 0.00 0.00 49 1010.4
20260905132405 80 232 0.0 0.0 0.00 0.00 0.00 49 1010.3
20260905131405 80 232 0.0 0.0 0.00 0.00 0.00 49 1010.2
20260905130905 80 232 0.0 0.0 0.00 0.00 0.00 49 1010.3
20260905130405 80 231 0.0 0.0 0.00 0.00 0.00 49 1010.2
20260905125905 80 232 0.0 0.0 0.00 0.00 0.00 50 1010.0
20260905125405 80 232 0.0 0.0 0.00 0.00 0.00 50 1009.9
20260905124905 80 231 0.0 0.0 0.00 0.00 0.00 50 1009.8
20260905124405 80 232 0.0 0.0 0.00 0.00 0.00 50 1009.8
20260905123405 80 231 0.0 0.0 0.00 0.00 0.00 49 1009.6
20260905122905 80 232 0.0 0.0 0.00 0.00 0.00 49 1009.6
20260905121405 80 232 0.0 0.0 0.00 0.00 0.00 48 1009.5
20260905120905 80 231 0.0 0.0 0.00 0.00 0.00 48 1009.6
20260905120405 80 231 0.0 0.0 0.00 0.00 0.00 48 1009.6
20260905115405 80 232 0.0 0.0 0.00 0.00 0.00 49 1009.6
20260905114404 80 231 0.0 0.0 0.00 0.00 0.00 48 1009.5
20260905113905 81 231 0.0 0.0 0.00 0.00 0.00 48 1009.5
20260905113405 81 232 0.0 0.0 0.00 0.00 0.00 47 1009.5
20260905112905 81 231 0.0 0.0 0.00 0.00 0.00 47 1009.5
20260905112405 81 231 0.0 0.0 0.00 0.00 0.00 47 1009.4
20260905111905 81 232 0.0 0.0 0.00 0.00 0.00 47 1009.5
20260905111405 81 231 0.0 0.0 0.00 0.00 0.00 47 1009.5
20260905110405 82 232 0.0 0.0 0.00 0.00 0.00 46 1009.3
20260905105905 82 232 0.0 0.0 0.00 0.00 0.00 46 1009.3
20260905105405 82 231 0.0 0.0 0.00 0.00 0.00 46 1009.3
20260905104906 82 231 0.0 0.0 0.00 0.00 0.00 46 1009.3
20260905104405 82 232 0.0 0.0 0.00 0.00 0.00 45 1009.2
20260905103405 82 232 0.0 0.0 0.00 0.00 0.00 45 1009.2
20260905102405 83 232 0.0 0.0 0.00 0.00 0.00 44 1009.1
20260905101905 83 232 0.0 0.0 0.00 0.00 0.00 44 1009.1
20260905101405 83 232 0.0 0.0 0.00 0.00 0.00 44 1009.1
20260905100905 83 231 0.0 0.0 0.00 0.00 0.00 44 1009.0
20260905100405 83 231 0.0 0.0 0.00 0.00 0.00 44 1008.9
20260905095905 83 232 0.0 0.0 0.00 0.00 0.00 44 1008.9
20260905095405 83 231 0.0 0.0 0.00 0.00 0.00 44 1009.0
20260905094905 83 232 0.0 0.0 0.00 0.00 0.00 43 1009.0
20260905093404 84 231 0.0 0.0 0.00 0.00 0.00 42 1008.9
20260905092905 84 232 0.0 0.0 0.00 0.00 0.00 42 1008.9
20260905092405 84 231 0.0 0.0 0.00 0.00 0.00 42 1008.9
20260905091905 84 231 0.0 0.0 0.00 0.00 0.00 42 1009.0
20260905090904 85 232 0.0 0.0 0.00 0.00 0.00 41 1008.9
20260905090404 85 231 0.0 0.0 0.00 0.00 0.00 41 1008.9
20260905085905 86 232 0.0 0.0 0.00 0.00 0.00 40 1008.9
20260905084905 86 232 0.0 0.0 0.00 0.00 0.00 40 1008.9
20260905084405 86 231 0.0 0.0 0.00 0.00 0.00 40 1008.9
20260905083905 86 232 0.0 0.0 0.00 0.00 0.00 40 1009.0
20260905083405 86 232 0.0 0.0 0.00 0.00 0.00 39 1009.0
20260905082404 86 232 0.0 0.0 0.00 0.00 0.00 39 1009.0
20260905081905 87 231 0.0 0.0 0.00 0.00 0.00 38 1009.1
20260905080905 87 232 0.0 0.0 0.00 0.00 0.00 38 1009.1
20260905080405 87 231 0.0 0.0 0.00 0.00 0.00 38 1009.0
20260905075905 88 231 0.0 0.0 0.00 0.00 0.00 37 1009.1
20260905074905 88 231 0.0 0.0 0.00 0.00 0.00 37 1009.0
20260905074405 88 232 0.0 0.0 0.00 0.00 0.00 37 1009.0
20260905073905 88 232 0.0 0.0 0.00 0.00 0.00 37 1008.9
20260905073405 89 232 0.0 0.0 0.00 0.00 0.00 36 1008.9
20260905071905 89 231 0.0 0.0 0.00 0.00 0.00 35 1008.9
20260905071405 89 231 0.0 0.0 0.00 0.00 0.00 35 1008.7
20260905070905 90 231 0.0 0.0 0.00 0.00 0.00 35 1008.7
20260905070405 90 231 0.0 0.0 0.00 0.00 0.00 35 1008.7
20260905065905 90 231 0.0 0.0 0.00 0.00 0.00 35 1008.8
20260905064905 90 231 0.0 0.0 0.00 0.00 0.00 35 1008.7
20260905064405 91 231 0.0 0.0 0.00 0.00 0.00 34 1008.7
20260905063904 91 231 0.0 0.0 0.00 0.00 0.00 34 1008.6
20260905062904 91 231 0.0 0.0 0.00 0.00 0.00 34 1008.5
20260905062405 91 231 0.0 0.0 0.00 0.00 0.00 34 1008.5
20260905061905 91 231 0.0 0.0 0.00 0.00 0.00 34 1008.5
20260905061405 91 231 0.0 0.0 0.00 0.00 0.00 33 1008.5
20260905060905 92 231 0.0 0.0 0.00 0.00 0.00 33 1008.4
20260905060405 92 231 0.0 0.0 0.00 0.00 0.00 33 1008.4
20260905055905 92 230 0.0 0.0 0.00 0.00 0.00 33 1008.4
20260905055405 92 231 0.0 0.0 0.00 0.00 0.00 33 1008.4
20260905054905 92 231 0.0 0.0 0.00 0.00 0.00 33 1008.5
20260905054405 92 231 0.0 0.0 0.00 0.00 0.00 33 1008.4
20260905053905 92 231 0.0 0.0 0.00 0.00 0.00 32 1008.3
20260905053405 92 232 0.0 0.0 0.00 0.00 0.00 32 1008.3
20260905052905 92 231 0.0 0.0 0.00 0.00 0.00 32 1008.3
20260905052405 92 231 0.0 0.0 0.00 0.00 0.00 32 1008.3
20260905051905 92 231 0.0 0.0 0.00 0.00 0.00 32 1008.2
20260905051405 93 231 0.0 0.0 0.00 0.00 0.00 32 1008.1
20260905050905 93 231 0.0 0.0 0.00 0.00 0.00 32 1008.1
20260905050405 93 231 0.0 0.0 0.00 0.00 0.00 32 1008.2
20260905045905 93 232 0.0 0.0 0.00 0.00 0.00 32 1008.1
20260905045405 93 232 0.0 0.0 0.00 0.00 0.00 32 1008.1
20260905044904 93 233 0.0 0.0 0.00 0.00 0.00 32 1008.1
20260905044405 93 232 0.0 0.0 0.00 0.00 0.00 32 1008.1
20260905043905 93 232 0.0 0.0 0.00 0.00 0.00 32 1008.1
20260905043405 93 232 0.0 0.0 0.00 0.00 0.00 32 1008.0
20260905042905 93 232 0.0 0.0 0.00 0.00 0.00 32 1008.0
20260905042405 93 233 0.0 0.0 0.00 0.00 0.00 32 1007.8
20260905041905 94 233 0.0 0.0 0.00 0.00 0.00 32 1007.8
20260905040904 94 222 0.0 0.0 0.00 0.00 0.00 32 1007.7
20260905040405 94 223 0.0 0.0 0.00 0.00 0.00 32 1007.7
20260905035405 94 223 0.0 0.0 0.00 0.00 0.00 32 1007.8
20260905034905 94 221 0.0 0.0 0.00 0.00 0.00 32 1007.8
20260905034405 94 217 0.0 0.0 0.00 0.00 0.00 32 1007.7
20260905032904 95 217 0.0 0.0 0.00 0.00 0.00 32 1007.4
20260905032405 95 218 0.0 0.0 0.00 0.00 0.00 32 1007.4
20260905031904 95 217 0.0 0.0 0.00 0.00 0.00 31 1007.3
20260905031404 95 217 0.0 0.0 0.00 0.00 0.00 31 1007.3
20260905030905 95 217 0.0 0.0 0.00 0.00 0.00 31 1007.2
20260905030405 95 217 0.0 0.0 0.00 0.00 0.00 31 1007.1
20260905025904 95 217 0.0 0.0 0.00 0.00 0.00 31 1007.2
20260905024904 96 216 0.0 0.0 0.00 0.00 0.00 31 1006.9
20260905024405 96 216 0.0 0.0 0.00 0.00 0.00 30 1006.8
20260905023904 96 212 0.0 0.0 0.00 0.00 0.00 30 1006.8
20260905023405 96 210 0.0 0.0 0.00 0.00 0.00 30 1006.8
20260905022904 96 204 0.0 0.0 0.00 0.00 0.00 29 1006.8
20260905022405 96 216 0.0 0.0 0.00 0.00 0.00 29 1006.7
20260905021904 97 231 0.0 0.0 0.00 0.00 0.00 29 1006.5
20260905020905 97 226 0.0 0.0 0.00 0.00 0.00 28 1006.6
20260905020404 97 225 0.0 0.0 0.00 0.00 0.00 28 1006.5
20260905015905 97 231 0.0 0.0 0.00 0.00 0.00 28 1006.6
20260905015405 97 223 0.0 0.0 0.00 0.00 0.00 28 1006.6
20260905014905 97 223 0.0 0.0 0.00 0.00 0.00 28 1006.5
20260905014405 98 267 0.0 0.0 0.00 0.00 0.00 28 1006.3
20260905013905 98 223 0.0 0.0 0.00 0.00 0.00 28 1006.4
20260905013405 98 222 0.0 0.0 0.00 0.00 0.00 28 1006.3
20260905012905 98 232 0.0 1.0 0.00 0.00 0.00 28 1006.3
20260905012404 98 238 0.0 0.0 0.00 0.00 0.00 27 1006.2
20260905011905 98 216 0.0 0.0 0.00 0.00 0.00 27 1006.3
20260905011405 98 248 0.0 0.0 0.00 0.00 0.00 27 1006.2
20260905010905 99 244 0.0 1.0 0.00 0.00 0.00 27 1006.2
20260905005904 99 217 0.0 0.0 0.00 0.00 0.00 27 1006.3
20260905005405 98 233 0.0 0.0 0.00 0.00 0.00 28 1006.3
20260905004904 98 232 0.0 0.0 0.00 0.00 0.00 29 1006.3
20260905004405 98 244 0.0 0.0 0.00 0.00 0.00 30 1006.3
20260905003905 98 244 0.0 0.0 0.00 0.00 0.00 30 1006.4
20260905003404 98 244 0.0 0.0 0.00 0.00 0.00 30 1006.4
20260905002404 98 244 0.0 0.0 0.00 0.00 0.00 31 1006.5
20260905001905 98 244 0.0 0.0 0.00 0.00 0.00 30 1006.5
20260905001404 98 244 0.0 0.0 0.00 0.00 0.00 31 1006.5
20260905000404 97 245 0.0 0.0 0.00 0.00 0.00 32 1006.6
20260904235905 98 245 0.0 0.0 0.00 0.00 0.00 32 1006.5
20260904235405 98 244 0.0 0.0 0.00 0.00 0.00 32 1006.6
20260904234905 99 244 0.0 0.0 0.00 0.00 0.00 31 1006.6
20260904234404 99 244 0.0 0.0 0.00 0.00 0.00 31 1006.6
20260904233905 99 244 0.0 0.0 0.00 0.00 0.00 31 1006.6
20260904233404 99 244 0.0 0.0 0.00 0.00 0.00 31 1006.7
20260904232905 100 244 0.0 0.0 0.00 0.00 0.00 31 1006.6
20260904232404 99 244 0.0 0.0 0.00 0.00 0.00 33 1006.7
20260904231905 99 244 0.0 0.0 0.00 0.00 0.00 34 1006.8
20260904231405 98 244 0.0 0.0 0.00 0.00 0.00 34 1006.8
20260904230905 98 244 0.0 0.0 0.00 0.00 0.00 33 1006.9
20260904230404 98 245 0.0 0.0 0.00 0.00 0.00 33 1006.9
20260904225905 98 245 0.0 0.0 0.00 0.00 0.00 33 1006.8
20260904225404 98 244 0.0 0.0 0.00 0.00 0.00 33 1007.0
20260904224904 98 245 0.0 0.0 0.00 0.00 0.00 33 1007.1
20260904224404 98 214 0.0 0.0 0.00 0.00 0.00 34 1007.1
20260904223904 98 213 0.0 0.0 0.00 0.00 0.00 34 1007.0
20260904223404 99 213 0.0 2.0 0.00 0.00 0.00 34 1007.0
20260904222904 99 214 0.0 0.0 0.00 0.00 0.00 34 1007.1